NIMBUS 2 DEB, 28617

Orbit data source: Space-Track

NIMBUS 2 DEB, 28617 is space debris in SSO originally from a launch on Sun, 15 May 1966 UTC launched from the Air Force Western Test Range (AFWTR). Debris objects in space refer to the collection of defunct objects orbiting the Earth. Examples of debris include non-operational satellites, rocket bodies, and fragments generated from explosions, collisions, or faulty payload assembly.

Loading next visibility...
Identifier
28617, 1966-040AG
Orbit
SSO
Country
Flag of USUS
Related business
Manufacturer
Unknown
Mission
Spacecraft
Bus & Motor
Unknown
Mass
Unknown
Launch date (UTC)
1966-05-15 (60 years ago)
Launch vehicle
Unknown
Launch site
Air Force Western Test Range (AFWTR)
Object type
Payload
Rocket body
Debris
Shape & HBR
Unknown shape, 0.1 m
Radar Cross Section
Small (<0.1 m²)

Expand to show TLE details & history
Last TLE update: 17 hours ago

TLE from 17 hours ago
0 NIMBUS 2 DEB
1 28617U 66040AG  25346.56925917  .00005315  00000-0  51176-2 0  9990
2 28617 100.4655 200.9482 0045022 169.9128 247.9946 13.80096818169293
Epoch: 2025-12-12T13:39Z
TLE epoch observation values (Epoch: 2025-12-12T13:39:43.992Z)
Latitude
56.06629°
Longitude
-101.34368°
Altitude
985.294 km
Speed
7.358 km/s
True Right ascension
12h 20m 23s
True Declination
55° 54' 42"
Sunlit
Object was in daylight at epoch
Visualization orbit readout
Latitude
Unknown
Longitude
Unknown
Altitude
Unknown
Speed
Unknown
Apparent Right ascension
Unknown
Apparent Declination
Unknown
Sunlit
N/A
Visualization observer readout
Local Sidereal Time
05:22:59
Azimuth
Unknown
Elevation
Unknown
Doppler factor
Unknown
Orbital elements
Apogee altitude
993.888 km
Perigee altitude
927.804 km
Semi-major axis
7,338.983 km
Eccentricity
0.0045
Inclination
100.4655°
RAAN
200.9482°
Arg. of periapsis
169.9128°
True anomaly
247.51728°
Mean anomaly
247.9946°
Eccentric anomaly
247.75584°
Mean motion
3.45215 °/min
Orbital period
104.28 mins
BSTAR
0.0051176
Loading maneuver chart data...
Computing Atmospheric mass density...
Loading historical data...
Loading historical data...
Loading historical data...
Loading historical data...
Loading historical data...
Loading historical data...
Loading historical data...

Documentation

Showing up to 5 results
|